Location: Sevilla
(37.3933°N, 5.9839°W)
Time: 04:19:05
(UTC+02:00)

Transit 2A - Pass Details

Date: 25 June 2024
Orbit: 591 x 960 km, 66.7° (Epoch: 15 July)

Event Time Altitude Azimuth Distance (km) Brightness Sun altitude
Rises 17:12:07 0° 230° (SW) 3,003 9.6 52.0°
Reaches altitude 10° 17:14:29 10° 240° (WSW) 2,145 9.1 51.6°
Maximum altitude 17:18:59 36° 306° (NW) 1,178 8.1 50.7°
Drops below altitude 10° 17:23:57 10° 12° (NNE) 2,382 8.5 49.7°
Sets 17:26:43 0° 21° (NNE) 3,383 9.1 49.2°
